When you browse on this site, cookies collect data to enhance your experience and personalize the content and advertising you see.
Visit our Privacy Policy to learn more. By continuing to use the site, you agree to this use of cookies and data.
  • In Slovakia
  • List of Countries
  • For 7 days
  • Water Temperature
  • Weather Map
  • Weather Widgets
  • user-avatar
    Login

    Hourly Weather Mitkovichi

    Today, 16 September, Monday

    Time Temperature Precipitation Wind Pressure Humidity
    00:00 +14°C° 0.1 mm 6 mps 740 mmHg 69%
    01:00 +14°C° 0.1 mm 6 mps 739 mmHg 72%
    02:00 +14°C° 0 mm 5 mps 739 mmHg 70%
    03:00 +13°C° 0.1 mm 5 mps 739 mmHg 71%
    04:00 +13°C° 0.1 mm 6 mps 739 mmHg 73%
    05:00 +11°C° 0.1 mm 6 mps 739 mmHg 74%
    06:00 +11°C° 0 mm 6 mps 739 mmHg 74%
    07:00 +11°C° 0 mm 7 mps 739 mmHg 74%
    08:00 +11°C° 0 mm 7 mps 739 mmHg 74%
    09:00 +12°C° 0 mm 7 mps 739 mmHg 68%
    10:00 +13°C° 0 mm 8 mps 739 mmHg 62%
    11:00 +15°C° 0 mm 8 mps 739 mmHg 57%
    12:00 +15°C° 0 mm 8 mps 739 mmHg 58%
    13:00 +13°C° 0 mm 8 mps 739 mmHg 58%
    14:00 +13°C° 0 mm 8 mps 739 mmHg 59%
    15:00 +13°C° 0 mm 8 mps 739 mmHg 60%
    16:00 +13°C° 0 mm 8 mps 739 mmHg 61%
    17:00 +12°C° 0 mm 7 mps 739 mmHg 62%
    18:00 +11°C° 0 mm 7 mps 739 mmHg 64%
    19:00 +10°C° 0 mm 6 mps 739 mmHg 67%
    20:00 +10°C° 0 mm 5 mps 739 mmHg 70%
    21:00 +9°C° 0 mm 5 mps 739 mmHg 72%
    22:00 +9°C° 0 mm 5 mps 738 mmHg 74%
    23:00 +8°C° 0 mm 5 mps 738 mmHg 75%

    Tomorrow, 17 September, Tuesday

    Time Temperature Precipitation Wind Pressure Humidity
    00:00 +8°C° 0 mm 5 mps 738 mmHg 75%
    01:00 +7°C° 0 mm 5 mps 738 mmHg 75%
    02:00 +7°C° 0 mm 5 mps 738 mmHg 75%
    03:00 +7°C° 0 mm 5 mps 738 mmHg 77%
    04:00 +6°C° 0 mm 5 mps 738 mmHg 79%
    05:00 +6°C° 0 mm 5 mps 737 mmHg 80%
    06:00 +6°C° 0 mm 5 mps 737 mmHg 80%
    07:00 +7°C° 0 mm 6 mps 737 mmHg 79%
    08:00 +8°C° 0 mm 6 mps 737 mmHg 79%
    09:00 +9°C° 0 mm 7 mps 737 mmHg 73%
    10:00 +10°C° 0 mm 7 mps 737 mmHg 67%
    11:00 +12°C° 0 mm 7 mps 737 mmHg 61%
    12:00 +12°C° 0.2 mm 7 mps 736 mmHg 61%
    13:00 +12°C° 0.2 mm 7 mps 736 mmHg 60%
    14:00 +12°C° 0.2 mm 7 mps 735 mmHg 60%
    15:00 +13°C° 0.4 mm 6 mps 735 mmHg 64%
    16:00 +11°C° 0.4 mm 6 mps 735 mmHg 68%
    17:00 +12°C° 0.4 mm 5 mps 734 mmHg 72%
    18:00 +10°C° 0.3 mm 5 mps 734 mmHg 77%
    19:00 +10°C° 0.3 mm 4 mps 733 mmHg 81%
    20:00 +8°C° 0.3 mm 4 mps 733 mmHg 85%
    21:00 +8°C° 0.3 mm 5 mps 733 mmHg 85%
    22:00 +7°C° 0.3 mm 6 mps 733 mmHg 85%
    23:00 +5°C° 0.3 mm 7 mps 732 mmHg 85%

    Day after tomorrow, 18 September, Wednesday

    Time Temperature Precipitation Wind Pressure Humidity
    00:00 +4°C° 0 mm 7 mps 732 mmHg 87%
    01:00 +4°C° 0 mm 6 mps 732 mmHg 89%
    02:00 +3°C° 0 mm 5 mps 732 mmHg 91%
    03:00 +3°C° 0 mm 6 mps 732 mmHg 90%
    04:00 +4°C° 0 mm 6 mps 732 mmHg 89%
    05:00 +4°C° 0 mm 6 mps 732 mmHg 87%
    06:00 +4°C° 0 mm 6 mps 733 mmHg 87%
    07:00 +4°C° 0 mm 7 mps 733 mmHg 86%
    08:00 +4°C° 0 mm 7 mps 733 mmHg 85%
    09:00 +5°C° 0.2 mm 7 mps 734 mmHg 84%
    10:00 +5°C° 0.2 mm 7 mps 735 mmHg 82%
    11:00 +6°C° 0.2 mm 7 mps 735 mmHg 81%
    12:00 +8°C° 0.1 mm 7 mps 736 mmHg 78%
    13:00 +9°C° 0.1 mm 7 mps 736 mmHg 74%
    14:00 +10°C° 0.1 mm 7 mps 737 mmHg 71%
    15:00 +10°C° 0 mm 6 mps 738 mmHg 70%
    16:00 +10°C° 0 mm 6 mps 738 mmHg 70%
    17:00 +10°C° 0 mm 5 mps 739 mmHg 69%
    18:00 +9°C° 0.1 mm 5 mps 739 mmHg 75%
    19:00 +8°C° 0.1 mm 5 mps 739 mmHg 81%
    20:00 +7°C° 0.1 mm 5 mps 740 mmHg 87%
    21:00 +6°C° 0 mm 5 mps 740 mmHg 89%
    22:00 +6°C° 0 mm 5 mps 740 mmHg 91%
    23:00 +6°C° 0 mm 5 mps 741 mmHg 94%

    19 September, Thursday

    Time Temperature Precipitation Wind Pressure Humidity
    00:00 +6°C° 0 mm 5 mps 741 mmHg 92%
    01:00 +7°C° 0 mm 5 mps 741 mmHg 90%
    02:00 +7°C° 0 mm 5 mps 742 mmHg 88%
    03:00 +7°C° 0 mm 5 mps 742 mmHg 88%
    04:00 +6°C° 0 mm 5 mps 742 mmHg 88%
    05:00 +6°C° 0 mm 5 mps 742 mmHg 88%
    06:00 +6°C° 0 mm 5 mps 742 mmHg 87%
    07:00 +6°C° 0 mm 5 mps 743 mmHg 87%
    08:00 +6°C° 0 mm 5 mps 743 mmHg 86%
    09:00 +7°C° 0 mm 5 mps 743 mmHg 82%
    10:00 +8°C° 0 mm 4 mps 744 mmHg 77%
    11:00 +10°C° 0 mm 4 mps 744 mmHg 73%
    12:00 +11°C° 0.3 mm 4 mps 744 mmHg 71%
    13:00 +11°C° 0.3 mm 4 mps 744 mmHg 70%
    14:00 +11°C° 0.3 mm 4 mps 744 mmHg 68%
    15:00 +11°C° 0.1 mm 4 mps 744 mmHg 70%
    16:00 +11°C° 0.1 mm 3 mps 744 mmHg 72%
    17:00 +11°C° 0.1 mm 3 mps 744 mmHg 73%
    18:00 +9°C° 0.1 mm 3 mps 744 mmHg 78%
    19:00 +8°C° 0.1 mm 3 mps 744 mmHg 82%
    20:00 +7°C° 0.1 mm 3 mps 744 mmHg 86%
    21:00 +7°C° 0 mm 3 mps 744 mmHg 86%
    22:00 +5°C° 0 mm 3 mps 744 mmHg 87%
    23:00 +5°C° 0 mm 4 mps 744 mmHg 87%

    20 September, Friday

    Time Temperature Precipitation Wind Pressure Humidity
    00:00 +5°C° 0 mm 4 mps 745 mmHg 89%
    01:00 +4°C° 0 mm 4 mps 745 mmHg 91%
    02:00 +3°C° 0 mm 5 mps 745 mmHg 93%
    03:00 +2°C° 0 mm 5 mps 745 mmHg 93%
    04:00 +2°C° 0 mm 5 mps 745 mmHg 93%
    05:00 +2°C° 0 mm 6 mps 745 mmHg 94%
    06:00 +2°C° 0.1 mm 6 mps 745 mmHg 91%
    07:00 +3°C° 0.1 mm 6 mps 745 mmHg 88%
    08:00 +3°C° 0.1 mm 7 mps 745 mmHg 85%
    09:00 +4°C° 0.3 mm 6 mps 746 mmHg 82%
    10:00 +6°C° 0.3 mm 5 mps 746 mmHg 79%
    11:00 +6°C° 0.3 mm 5 mps 747 mmHg 76%
    12:00 +7°C° 0.3 mm 5 mps 747 mmHg 72%
    13:00 +8°C° 0.3 mm 5 mps 747 mmHg 67%
    14:00 +9°C° 0.3 mm 5 mps 747 mmHg 62%
    15:00 +10°C° 0.4 mm 4 mps 747 mmHg 66%
    16:00 +8°C° 0.4 mm 4 mps 747 mmHg 69%
    17:00 +8°C° 0.4 mm 4 mps 747 mmHg 73%
    18:00 +6°C° 0 mm 4 mps 748 mmHg 78%
    19:00 +5°C° 0 mm 4 mps 748 mmHg 83%
    20:00 +4°C° 0 mm 3 mps 749 mmHg 89%
    21:00 +3°C° 0 mm 3 mps 749 mmHg 90%
    22:00 +3°C° 0 mm 3 mps 750 mmHg 91%
    23:00 +2°C° 0 mm 3 mps 750 mmHg 92%

    21 September, Saturday

    Time Temperature Precipitation Wind Pressure Humidity
    00:00 +2°C° 0 mm 3 mps 750 mmHg 92%
    01:00 +1°C° 0 mm 3 mps 750 mmHg 93%
    02:00 +1°C° 0 mm 3 mps 750 mmHg 94%
    03:00 +1°C° 0 mm 3 mps 750 mmHg 93%
    04:00 0°C° 0 mm 3 mps 750 mmHg 92%
    05:00 0°C° 0 mm 3 mps 751 mmHg 91%
    06:00 +2°C° 0 mm 2 mps 751 mmHg 87%
    07:00 +3°C° 0 mm 2 mps 751 mmHg 83%
    08:00 +4°C° 0 mm 2 mps 751 mmHg 78%
    09:00 +5°C° 0 mm 2 mps 751 mmHg 73%
    10:00 +7°C° 0 mm 2 mps 752 mmHg 67%
    11:00 +8°C° 0 mm 2 mps 752 mmHg 61%
    12:00 +9°C° 0 mm 3 mps 751 mmHg 60%
    13:00 +10°C° 0 mm 3 mps 751 mmHg 58%
    14:00 +11°C° 0 mm 3 mps 751 mmHg 57%
    15:00 +10°C° 0 mm 3 mps 751 mmHg 60%
    16:00 +10°C° 0 mm 2 mps 751 mmHg 64%
    17:00 +10°C° 0 mm 2 mps 751 mmHg 67%
    18:00 +9°C° 0 mm 2 mps 751 mmHg 72%
    19:00 +8°C° 0 mm 2 mps 751 mmHg 76%
    20:00 +7°C° 0 mm 2 mps 751 mmHg 81%
    21:00 +7°C° 0 mm 1 mps 751 mmHg 84%
    22:00 +7°C° 0 mm 1 mps 751 mmHg 87%
    23:00 +6°C° 0 mm 1 mps 751 mmHg 91%
    Show more